Time,TemperatureF,DewpointF,PressureIn,WindDirection,WindDirectionDegrees,WindSpeedMPH,WindSpeedGustMPH,Humidity,HourlyPrecipIn,Conditions,Clouds,dailyrainin,SoftwareType,DateUTC
2013-07-25 00:01:00,31.8,24.0,29.85,North,2,0.0,0.0,75,0.00,,,0.00,TxWx,2013-07-25 05:01:00,
2013-07-25 00:06:00,31.7,24.0,29.85,North,355,0.0,0.0,75,0.00,,,0.00,TxWx,2013-07-25 05:06:00,
2013-07-25 00:12:00,31.8,24.0,29.85,North,349,0.0,0.0,76,0.00,,,0.00,TxWx,2013-07-25 05:12:00,
2013-07-25 00:17:00,31.8,24.0,29.85,North,354,0.0,0.0,76,0.00,,,0.00,TxWx,2013-07-25 05:17:00,
2013-07-25 00:22:00,31.5,24.0,29.85,North,354,0.0,0.0,76,0.00,,,0.00,TxWx,2013-07-25 05:22:00,
2013-07-25 00:31:00,31.3,23.0,29.85,NNE,14,0.0,0.0,76,0.00,,,0.00,TxWx,2013-07-25 05:31:00,
2013-07-25 00:41:00,31.2,23.0,29.85,North,360,0.0,0.0,76,0.00,,,0.00,TxWx,2013-07-25 05:41:00,
2013-07-25 00:46:00,31.2,23.0,29.85,North,355,0.0,0.0,76,0.00,,,0.00,TxWx,2013-07-25 05:46:00,
2013-07-25 00:51:00,31.1,23.0,29.85,North,358,0.0,0.0,76,0.00,,,0.00,TxWx,2013-07-25 05:51:00,
2013-07-25 00:56:00,31.1,23.0,29.85,North,7,0.0,0.0,76,0.00,,,0.00,TxWx,2013-07-25 05:56:00,
2013-07-25 01:06:00,31.1,23.0,29.85,North,8,0.0,0.0,76,0.00,,,0.00,TxWx,2013-07-25 06:06:00,
2013-07-25 01:11:00,31.0,23.0,29.85,North,4,0.0,0.0,76,0.00,,,0.00,TxWx,2013-07-25 06:11:00,
2013-07-25 01:16:00,31.2,23.0,29.84,North,359,0.0,0.0,76,0.00,,,0.00,TxWx,2013-07-25 06:16:00,
2013-07-25 01:21:00,31.0,23.0,29.85,North,356,0.0,0.0,77,0.00,,,0.00,TxWx,2013-07-25 06:21:00,
2013-07-25 01:26:00,31.1,23.0,29.85,North,353,0.0,0.0,77,0.00,,,0.00,TxWx,2013-07-25 06:26:00,
2013-07-25 01:31:00,30.9,23.0,29.84,North,1,0.0,0.0,77,0.00,,,0.00,TxWx,2013-07-25 06:31:00,
2013-07-25 01:36:00,30.8,23.0,29.84,North,356,0.0,0.0,77,0.00,,,0.00,TxWx,2013-07-25 06:36:00,
2013-07-25 01:41:00,30.8,24.0,29.84,North,357,0.0,0.0,77,0.00,,,0.00,TxWx,2013-07-25 06:41:00,
2013-07-25 01:46:00,30.8,24.0,29.84,North,354,0.0,0.0,77,0.00,,,0.00,TxWx,2013-07-25 06:46:00,
2013-07-25 01:56:00,30.9,24.0,29.84,North,359,0.0,0.0,77,0.00,,,0.00,TxWx,2013-07-25 06:56:00,
2013-07-25 02:01:00,30.8,24.0,29.84,North,359,0.0,0.0,77,0.00,,,0.00,TxWx,2013-07-25 07:01:00,
2013-07-25 02:06:00,30.7,24.0,29.84,North,360,0.0,0.0,78,0.00,,,0.00,TxWx,2013-07-25 07:06:00,
2013-07-25 02:16:00,30.4,23.0,29.84,North,0,0.0,0.0,78,0.00,,,0.00,TxWx,2013-07-25 07:16:00,
2013-07-25 02:21:00,30.5,23.0,29.84,North,358,0.0,0.0,77,0.00,,,0.00,TxWx,2013-07-25 07:21:00,
2013-07-25 02:26:00,30.5,23.0,29.84,North,355,0.0,0.0,77,0.00,,,0.00,TxWx,2013-07-25 07:26:00,
2013-07-25 02:36:00,30.6,23.0,29.84,North,4,0.0,0.0,75,0.00,,,0.00,TxWx,2013-07-25 07:36:00,
2013-07-25 02:41:00,30.5,23.0,29.84,North,3,0.0,0.0,75,0.00,,,0.00,TxWx,2013-07-25 07:41:00,
2013-07-25 02:46:00,30.4,22.0,29.84,North,360,0.0,0.0,74,0.00,,,0.00,TxWx,2013-07-25 07:46:00,
2013-07-25 02:51:00,30.4,22.0,29.84,North,355,0.0,0.0,74,0.00,,,0.00,TxWx,2013-07-25 07:51:00,
2013-07-25 02:56:00,30.3,22.0,29.84,North,354,0.0,0.0,74,0.00,,,0.00,TxWx,2013-07-25 07:56:00,
2013-07-25 03:06:00,30.2,22.0,29.84,North,2,0.0,0.0,74,0.00,,,0.00,TxWx,2013-07-25 08:06:00,
2013-07-25 03:11:00,30.0,22.0,29.84,North,354,0.0,0.0,74,0.00,,,0.00,TxWx,2013-07-25 08:11:00,
2013-07-25 03:21:00,29.9,22.0,29.85,North,356,0.0,0.0,75,0.00,,,0.00,TxWx,2013-07-25 08:21:00,
2013-07-25 03:26:00,29.9,22.0,29.85,North,357,0.0,0.0,75,0.00,,,0.00,TxWx,2013-07-25 08:26:00,
2013-07-25 03:32:00,29.7,22.0,29.85,North,4,0.0,0.0,75,0.00,,,0.00,TxWx,2013-07-25 08:32:00,
2013-07-25 03:41:00,29.7,22.0,29.85,North,8,0.0,0.0,75,0.00,,,0.00,TxWx,2013-07-25 08:41:00,
2013-07-25 03:46:00,29.8,22.0,29.85,North,8,0.0,0.0,75,0.00,,,0.00,TxWx,2013-07-25 08:46:00,
2013-07-25 03:51:00,29.8,22.0,29.85,North,6,0.0,0.0,75,0.00,,,0.00,TxWx,2013-07-25 08:51:00,
2013-07-25 03:56:00,29.7,22.0,29.85,North,4,0.0,0.0,76,0.00,,,0.00,TxWx,2013-07-25 08:56:00,
2013-07-25 04:02:00,29.4,21.0,29.85,North,5,0.0,0.0,76,0.00,,,0.00,TxWx,2013-07-25 09:02:00,
2013-07-25 04:11:00,29.5,22.0,29.85,North,3,0.0,0.0,77,0.00,,,0.00,TxWx,2013-07-25 09:11:00,
2013-07-25 04:16:00,29.3,22.0,29.85,North,5,0.0,0.0,77,0.00,,,0.00,TxWx,2013-07-25 09:16:00,
2013-07-25 04:21:00,29.2,22.0,29.85,North,5,0.0,0.0,78,0.00,,,0.00,TxWx,2013-07-25 09:21:00,
2013-07-25 04:31:00,29.3,22.0,29.85,NNE,17,0.0,0.0,78,0.00,,,0.00,TxWx,2013-07-25 09:31:00,
2013-07-25 04:41:00,29.4,22.0,29.86,NNE,13,0.0,0.0,78,0.00,,,0.00,TxWx,2013-07-25 09:41:00,
2013-07-25 04:46:00,29.3,22.0,29.86,NNE,13,0.0,0.0,78,0.00,,,0.00,TxWx,2013-07-25 09:46:00,
2013-07-25 04:51:00,29.2,22.0,29.86,NNE,12,0.0,0.0,79,0.00,,,0.00,TxWx,2013-07-25 09:51:00,
2013-07-25 04:56:00,29.3,22.0,29.86,NNE,13,0.0,0.0,79,0.00,,,0.00,TxWx,2013-07-25 09:56:00,
2013-07-25 05:01:00,29.1,22.0,29.86,North,11,0.0,0.0,79,0.00,,,0.00,TxWx,2013-07-25 10:01:00,
2013-07-25 05:06:00,28.9,22.0,29.86,North,11,0.0,0.0,79,0.00,,,0.00,TxWx,2013-07-25 10:06:00,
2013-07-25 05:16:00,28.8,23.0,29.87,NNE,14,0.0,0.0,80,0.00,,,0.00,TxWx,2013-07-25 10:16:00,
2013-07-25 05:21:00,29.0,23.0,29.87,NNE,14,0.0,0.0,81,0.00,,,0.00,TxWx,2013-07-25 10:21:00,
2013-07-25 05:26:00,28.8,23.0,29.87,NNE,14,0.0,0.0,81,0.00,,,0.00,TxWx,2013-07-25 10:26:00,
2013-07-25 05:31:00,28.8,23.0,29.87,NNE,14,0.0,0.0,81,0.00,,,0.00,TxWx,2013-07-25 10:31:00,
2013-07-25 05:41:00,28.8,23.0,29.88,NNE,16,0.0,0.0,82,0.00,,,0.00,TxWx,2013-07-25 10:41:00,
2013-07-25 05:46:00,28.8,23.0,29.88,NNE,15,0.0,0.0,82,0.00,,,0.00,TxWx,2013-07-25 10:46:00,
2013-07-25 05:52:00,28.8,23.0,29.88,NNE,16,0.0,0.0,82,0.00,,,0.00,TxWx,2013-07-25 10:52:00,
2013-07-25 06:01:00,28.9,23.0,29.88,NNE,16,0.0,0.0,83,0.00,,,0.00,TxWx,2013-07-25 11:01:00,
2013-07-25 06:06:00,29.0,23.0,29.89,NNE,15,0.0,0.0,83,0.00,,,0.00,TxWx,2013-07-25 11:06:00,
2013-07-25 06:12:00,29.1,24.0,29.89,NNE,16,0.0,0.0,84,0.00,,,0.00,TxWx,2013-07-25 11:12:00,
2013-07-25 06:22:00,29.3,24.0,29.89,NNE,15,0.0,0.0,84,0.00,,,0.00,TxWx,2013-07-25 11:22:00,
2013-07-25 06:27:00,29.7,25.0,29.88,NNE,15,0.0,0.0,85,0.00,,,0.00,TxWx,2013-07-25 11:27:00,
2013-07-25 06:36:00,30.7,25.0,29.89,NNE,12,0.0,0.0,83,0.00,,,0.00,TxWx,2013-07-25 11:36:00,
2013-07-25 06:46:00,31.0,24.0,29.89,NNE,16,0.0,0.0,79,0.00,,,0.00,TxWx,2013-07-25 11:46:00,
2013-07-25 06:51:00,31.2,24.0,29.89,North,8,0.0,0.0,78,0.00,,,0.00,TxWx,2013-07-25 11:51:00,
2013-07-25 06:56:00,31.5,24.0,29.89,NNE,18,0.0,0.0,77,0.00,,,0.00,TxWx,2013-07-25 11:56:00,
2013-07-25 07:01:00,31.5,23.0,29.89,NNE,15,0.0,0.0,76,0.00,,,0.00,TxWx,2013-07-25 12:01:00,
2013-07-25 07:06:00,31.7,24.0,29.90,NNE,19,0.0,0.0,76,0.00,,,0.00,TxWx,2013-07-25 12:06:00,
2013-07-25 07:11:00,32.0,24.0,29.89,NNE,18,0.0,0.0,75,0.00,,,0.00,TxWx,2013-07-25 12:11:00,
2013-07-25 07:17:00,32.0,24.0,29.90,NNE,16,0.0,0.0,75,0.00,,,0.00,TxWx,2013-07-25 12:17:00,
2013-07-25 07:26:00,32.5,24.0,29.90,NNE,13,0.0,0.0,74,0.00,,,0.00,TxWx,2013-07-25 12:26:00,
2013-07-25 07:31:00,32.5,23.0,29.90,NNE,21,0.0,0.0,72,0.00,,,0.00,TxWx,2013-07-25 12:31:00,
2013-07-25 07:36:00,32.6,24.0,29.90,NNE,24,0.0,0.0,71,0.00,,,0.00,TxWx,2013-07-25 12:36:00,
2013-07-25 07:41:00,32.6,24.0,29.90,NNE,24,0.0,0.0,72,0.00,,,0.00,TxWx,2013-07-25 12:41:00,
2013-07-25 07:47:00,32.8,24.0,29.90,NNE,24,0.0,0.0,71,0.00,,,0.00,TxWx,2013-07-25 12:47:00,
2013-07-25 07:52:00,32.9,23.0,29.91,SE,126,0.0,0.0,70,0.00,,,0.00,TxWx,2013-07-25 12:52:00,
2013-07-25 07:57:00,33.0,23.0,29.90,NNE,25,0.0,0.0,71,0.00,,,0.00,TxWx,2013-07-25 12:57:00,
2013-07-25 08:03:00,33.0,23.0,29.91,NNE,25,0.0,0.0,70,0.00,,,0.00,TxWx,2013-07-25 13:03:00,
2013-07-25 08:11:00,33.0,23.0,29.91,NNE,26,0.0,0.0,71,0.00,,,0.00,TxWx,2013-07-25 13:11:00,
2013-07-25 08:17:00,33.2,23.0,29.91,NNE,26,0.0,0.0,70,0.00,,,0.00,TxWx,2013-07-25 13:17:00,
2013-07-25 08:22:00,33.3,23.0,29.91,NNE,24,0.0,0.0,69,0.00,,,0.00,TxWx,2013-07-25 13:22:00,
2013-07-25 08:27:00,33.5,24.0,29.92,NW,326,0.0,0.0,68,0.00,,,0.00,TxWx,2013-07-25 13:27:00,
2013-07-25 08:32:00,33.6,23.0,29.92,NNE,26,0.0,0.0,68,0.00,,,0.00,TxWx,2013-07-25 13:32:00,
2013-07-25 08:38:00,34.0,23.0,29.92,NNW,327,0.0,0.0,68,0.00,,,0.00,TxWx,2013-07-25 13:38:00,
2013-07-25 08:46:00,34.5,23.0,29.92,NNE,26,0.0,0.0,67,0.00,,,0.00,TxWx,2013-07-25 13:46:00,
2013-07-25 08:51:00,34.4,22.0,29.93,NW,323,0.0,0.0,64,0.00,,,0.00,TxWx,2013-07-25 13:51:00,
2013-07-25 08:56:00,34.8,23.0,29.93,NNE,25,0.0,0.0,64,0.00,,,0.00,TxWx,2013-07-25 13:56:00,
2013-07-25 09:06:00,34.8,23.0,29.93,NNE,31,0.0,0.0,65,0.00,,,0.00,TxWx,2013-07-25 14:06:00,
2013-07-25 09:11:00,34.8,23.0,29.92,NNE,31,0.0,0.0,65,0.00,,,0.00,TxWx,2013-07-25 14:11:00,
2013-07-25 09:16:00,35.0,23.0,29.92,NNE,30,0.0,0.0,64,0.00,,,0.00,TxWx,2013-07-25 14:16:00,
2013-07-25 09:26:00,35.4,22.0,29.92,NNE,30,0.0,0.0,61,0.00,,,0.00,TxWx,2013-07-25 14:26:00,
2013-07-25 09:31:00,35.4,22.0,29.92,NNE,30,0.0,0.0,60,0.00,,,0.00,TxWx,2013-07-25 14:31:00,
2013-07-25 09:36:00,35.7,22.0,29.92,NNE,24,0.0,0.0,60,0.00,,,0.00,TxWx,2013-07-25 14:36:00,
2013-07-25 09:41:00,35.9,21.0,29.92,NNE,27,0.0,0.0,57,0.00,,,0.00,TxWx,2013-07-25 14:41:00,
2013-07-25 09:46:00,36.0,21.0,29.91,NNE,21,0.0,0.0,56,0.00,,,0.00,TxWx,2013-07-25 14:46:00,
2013-07-25 09:51:00,36.1,21.0,29.91,NNW,336,0.0,0.0,57,0.00,,,0.00,TxWx,2013-07-25 14:51:00,
2013-07-25 10:01:00,36.1,20.0,29.91,NNW,342,0.0,0.0,54,0.00,,,0.00,TxWx,2013-07-25 15:01:00,
2013-07-25 10:06:00,36.0,21.0,29.91,NNW,330,0.0,0.0,56,0.00,,,0.00,TxWx,2013-07-25 15:06:00,
2013-07-25 10:11:00,36.0,20.0,29.91,NNE,15,0.0,0.0,54,0.00,,,0.00,TxWx,2013-07-25 15:11:00,
2013-07-25 10:17:00,36.4,19.0,29.91,NNE,29,0.0,0.0,53,0.00,,,0.00,TxWx,2013-07-25 15:17:00,
2013-07-25 10:26:00,36.4,20.0,29.91,NW,325,0.0,0.0,54,0.00,,,0.00,TxWx,2013-07-25 15:26:00,
2013-07-25 10:31:00,36.4,19.0,29.91,NNE,28,0.0,0.0,52,0.00,,,0.00,TxWx,2013-07-25 15:31:00,
2013-07-25 10:36:00,36.3,18.0,29.91,NNE,21,0.0,0.0,49,0.00,,,0.00,TxWx,2013-07-25 15:36:00,
2013-07-25 10:46:00,36.8,19.0,29.91,NNE,18,0.0,0.0,50,0.00,,,0.00,TxWx,2013-07-25 15:46:00,
2013-07-25 10:51:00,36.7,20.0,29.92,NNE,31,0.0,0.0,52,0.00,,,0.00,TxWx,2013-07-25 15:51:00,
2013-07-25 10:56:00,36.3,19.0,29.92,NW,323,0.0,0.0,52,0.00,,,0.00,TxWx,2013-07-25 15:56:00,
2013-07-25 11:01:00,36.6,20.0,29.92,NNW,334,0.0,0.0,53,0.00,,,0.00,TxWx,2013-07-25 16:01:00,
2013-07-25 11:06:00,36.5,19.0,29.92,NNW,329,0.0,0.0,52,0.00,,,0.00,TxWx,2013-07-25 16:06:00,
2013-07-25 11:11:00,36.5,20.0,29.91,NNE,19,0.0,0.0,53,0.00,,,0.00,TxWx,2013-07-25 16:11:00,
2013-07-25 11:16:00,36.7,20.0,29.92,NNW,341,0.0,0.0,53,0.00,,,0.00,TxWx,2013-07-25 16:16:00,
2013-07-25 11:26:00,36.4,19.0,29.92,NNE,29,0.0,0.0,53,0.00,,,0.00,TxWx,2013-07-25 16:26:00,
2013-07-25 11:31:00,36.6,20.0,29.92,NNW,334,0.0,0.0,52,0.00,,,0.00,TxWx,2013-07-25 16:31:00,
2013-07-25 11:36:00,36.7,19.0,29.92,NNW,330,0.0,0.0,50,0.00,,,0.00,TxWx,2013-07-25 16:36:00,
2013-07-25 11:41:00,36.8,19.0,29.91,NNW,344,0.0,0.0,51,0.00,,,0.00,TxWx,2013-07-25 16:41:00,
2013-07-25 11:46:00,36.7,18.0,29.91,NNE,28,0.0,0.0,48,0.00,,,0.00,TxWx,2013-07-25 16:46:00,
2013-07-25 11:51:00,36.9,18.0,29.91,NNE,32,0.0,0.0,47,0.00,,,0.00,TxWx,2013-07-25 16:51:00,
2013-07-25 11:56:00,36.9,18.0,29.92,ESE,110,0.0,0.0,49,0.00,,,0.00,TxWx,2013-07-25 16:56:00,
2013-07-25 12:01:00,36.8,19.0,29.91,NNE,31,0.0,0.0,50,0.00,,,0.00,TxWx,2013-07-25 17:01:00,
2013-07-25 12:11:00,37.2,19.0,29.91,NNW,343,0.0,0.0,50,0.00,,,0.00,TxWx,2013-07-25 17:11:00,
2013-07-25 12:16:00,37.8,20.0,29.91,NNE,26,0.0,0.0,50,0.00,,,0.00,TxWx,2013-07-25 17:16:00,
2013-07-25 12:21:00,37.5,18.0,29.91,NNE,31,0.0,0.0,46,0.00,,,0.00,TxWx,2013-07-25 17:21:00,
2013-07-25 12:26:00,37.7,18.0,29.91,NNE,16,0.0,0.0,46,0.00,,,0.00,TxWx,2013-07-25 17:26:00,
2013-07-25 12:32:00,37.8,18.0,29.91,NNW,347,0.0,0.0,46,0.00,,,0.00,TxWx,2013-07-25 17:32:00,
2013-07-25 12:37:00,38.0,18.0,29.92,North,353,0.0,0.0,46,0.00,,,0.00,TxWx,2013-07-25 17:37:00,
2013-07-25 12:46:00,37.7,18.0,29.91,NNE,32,0.0,0.0,45,0.00,,,0.00,TxWx,2013-07-25 17:46:00,
2013-07-25 12:51:00,37.9,18.0,29.92,NNE,32,0.0,0.0,45,0.00,,,0.00,TxWx,2013-07-25 17:51:00,
2013-07-25 12:56:00,37.7,16.0,29.92,NW,326,0.0,0.0,43,0.00,,,0.00,TxWx,2013-07-25 17:56:00,
2013-07-25 13:01:00,37.7,17.0,29.92,NW,323,0.0,0.0,44,0.00,,,0.00,TxWx,2013-07-25 18:01:00,
2013-07-25 13:06:00,37.9,17.0,29.92,North,6,0.0,0.0,44,0.00,,,0.00,TxWx,2013-07-25 18:06:00,
2013-07-25 13:16:00,38.1,16.0,29.92,NNE,33,0.0,0.0,42,0.00,,,0.00,TxWx,2013-07-25 18:16:00,
2013-07-25 13:22:00,38.3,16.0,29.92,NNE,23,0.0,0.0,43,0.00,,,0.00,TxWx,2013-07-25 18:22:00,
2013-07-25 13:27:00,38.2,16.0,29.92,NNE,31,0.0,0.0,42,0.00,,,0.00,TxWx,2013-07-25 18:27:00,
2013-07-25 13:33:00,38.1,16.0,29.92,NNE,32,0.0,0.0,42,0.00,,,0.00,TxWx,2013-07-25 18:33:00,
2013-07-25 13:41:00,38.0,16.0,29.92,NNE,32,0.0,0.0,42,0.00,,,0.00,TxWx,2013-07-25 18:41:00,
2013-07-25 13:46:00,38.0,16.0,29.91,NNE,23,0.0,0.0,42,0.00,,,0.00,TxWx,2013-07-25 18:46:00,
2013-07-25 13:56:00,38.5,17.0,29.91,NNE,31,0.0,0.0,42,0.00,,,0.00,TxWx,2013-07-25 18:56:00,
2013-07-25 14:01:00,38.2,16.0,29.90,NNE,24,0.0,0.0,42,0.00,,,0.00,TxWx,2013-07-25 19:01:00,
2013-07-25 14:06:00,38.2,16.0,29.91,NE,36,0.0,0.0,42,0.00,,,0.00,TxWx,2013-07-25 19:06:00,
2013-07-25 14:12:00,38.5,16.0,29.91,NW,323,0.0,0.0,43,0.00,,,0.00,TxWx,2013-07-25 19:12:00,
2013-07-25 14:21:00,38.3,16.0,29.91,NNW,331,0.0,0.0,43,0.00,,,0.00,TxWx,2013-07-25 19:21:00,
2013-07-25 14:26:00,38.3,16.0,29.91,NNW,346,0.0,0.0,43,0.00,,,0.00,TxWx,2013-07-25 19:26:00,
2013-07-25 14:31:00,38.3,17.0,29.91,NNW,329,0.0,0.0,44,0.00,,,0.00,TxWx,2013-07-25 19:31:00,
2013-07-25 14:36:00,38.4,17.0,29.91,SW,221,0.0,0.0,45,0.00,,,0.00,TxWx,2013-07-25 19:36:00,
2013-07-25 14:41:00,38.2,17.0,29.91,NNW,340,0.0,0.0,45,0.00,,,0.00,TxWx,2013-07-25 19:41:00,
2013-07-25 14:46:00,38.5,19.0,29.90,North,0,0.0,0.0,46,0.00,,,0.00,TxWx,2013-07-25 19:46:00,
2013-07-25 14:51:00,38.6,18.0,29.91,NNW,342,0.0,0.0,44,0.00,,,0.00,TxWx,2013-07-25 19:51:00,
2013-07-25 14:56:00,38.5,18.0,29.91,North,2,0.0,0.0,46,0.00,,,0.00,TxWx,2013-07-25 19:56:00,
2013-07-25 15:01:00,38.5,18.0,29.90,NNW,344,0.0,0.0,47,0.00,,,0.00,TxWx,2013-07-25 20:01:00,
2013-07-25 15:07:00,38.5,19.0,29.90,North,359,0.0,0.0,47,0.00,,,0.00,TxWx,2013-07-25 20:07:00,
2013-07-25 15:16:00,38.6,19.0,29.90,NNW,348,0.0,0.0,46,0.00,,,0.00,TxWx,2013-07-25 20:16:00,
2013-07-25 15:21:00,38.7,19.0,29.90,North,357,0.0,0.0,47,0.00,,,0.00,TxWx,2013-07-25 20:21:00,
2013-07-25 15:26:00,38.8,20.0,29.89,NNW,341,0.0,0.0,48,0.00,,,0.00,TxWx,2013-07-25 20:26:00,
2013-07-25 15:32:00,38.8,18.0,29.89,NW,324,0.0,0.0,44,0.00,,,0.00,TxWx,2013-07-25 20:32:00,
2013-07-25 15:41:00,38.6,18.0,29.89,NNW,347,0.0,0.0,45,0.00,,,0.00,TxWx,2013-07-25 20:41:00,
2013-07-25 15:47:00,38.6,18.0,29.89,NNW,343,0.0,0.0,44,0.00,,,0.00,TxWx,2013-07-25 20:47:00,
2013-07-25 15:56:00,38.6,17.0,29.89,NNW,337,0.0,0.0,43,0.00,,,0.00,TxWx,2013-07-25 20:56:00,
2013-07-25 16:01:00,38.7,17.0,29.88,NW,323,0.0,0.0,43,0.00,,,0.00,TxWx,2013-07-25 21:01:00,
2013-07-25 16:06:00,39.1,16.0,29.89,NW,326,0.0,0.0,41,0.00,,,0.00,TxWx,2013-07-25 21:06:00,
2013-07-25 16:11:00,38.8,17.0,29.88,NNW,337,0.0,0.0,42,0.00,,,0.00,TxWx,2013-07-25 21:11:00,
2013-07-25 16:21:00,38.7,16.0,29.88,NNW,340,0.0,0.0,40,0.00,,,0.00,TxWx,2013-07-25 21:21:00,
2013-07-25 16:26:00,38.7,16.0,29.88,North,351,0.0,0.0,41,0.00,,,0.00,TxWx,2013-07-25 21:26:00,
2013-07-25 16:31:00,38.8,15.0,29.87,SE,139,0.0,0.0,40,0.00,,,0.00,TxWx,2013-07-25 21:31:00,
2013-07-25 16:36:00,39.0,16.0,29.87,NNW,335,0.0,0.0,40,0.00,,,0.00,TxWx,2013-07-25 21:36:00,
2013-07-25 16:42:00,39.0,16.0,29.87,NNE,13,0.0,0.0,40,0.00,,,0.00,TxWx,2013-07-25 21:42:00,
2013-07-25 16:47:00,39.3,16.0,29.87,NNW,329,0.0,0.0,40,0.00,,,0.00,TxWx,2013-07-25 21:47:00,
2013-07-25 16:56:00,39.3,16.0,29.87,NNW,339,0.0,0.0,41,0.00,,,0.00,TxWx,2013-07-25 21:56:00,
2013-07-25 17:01:00,39.5,16.0,29.88,NNW,335,0.0,0.0,41,0.00,,,0.00,TxWx,2013-07-25 22:01:00,
2013-07-25 17:06:00,39.7,17.0,29.88,NNW,331,0.0,0.0,41,0.00,,,0.00,TxWx,2013-07-25 22:06:00,
2013-07-25 17:11:00,39.1,16.0,29.88,NE,41,0.0,0.0,41,0.00,,,0.00,TxWx,2013-07-25 22:11:00,
2013-07-25 17:17:00,39.4,16.0,29.88,North,5,0.0,0.0,41,0.00,,,0.00,TxWx,2013-07-25 22:17:00,
2013-07-25 17:22:00,39.4,16.0,29.88,NE,41,0.0,0.0,41,0.00,,,0.00,TxWx,2013-07-25 22:22:00,
2013-07-25 17:27:00,39.1,16.0,29.88,NW,324,0.0,0.0,41,0.00,,,0.00,TxWx,2013-07-25 22:27:00,
2013-07-25 17:36:00,39.4,16.0,29.88,NNW,341,0.0,0.0,41,0.00,,,0.00,TxWx,2013-07-25 22:36:00,
2013-07-25 17:41:00,39.3,16.0,29.88,SE,139,0.0,0.0,41,0.00,,,0.00,TxWx,2013-07-25 22:41:00,
2013-07-25 17:47:00,39.2,15.0,29.88,NNW,332,0.0,0.0,40,0.00,,,0.00,TxWx,2013-07-25 22:47:00,
2013-07-25 17:52:00,39.3,16.0,29.88,North,353,0.0,0.0,40,0.00,,,0.00,TxWx,2013-07-25 22:52:00,
2013-07-25 17:57:00,39.1,16.0,29.88,NE,42,0.0,0.0,41,0.00,,,0.00,TxWx,2013-07-25 22:57:00,
2013-07-25 18:07:00,39.1,15.0,29.88,NNW,329,0.0,0.0,39,0.00,,,0.00,TxWx,2013-07-25 23:07:00,
2013-07-25 18:16:00,38.8,16.0,29.88,NNW,332,0.0,0.0,40,0.00,,,0.00,TxWx,2013-07-25 23:16:00,
2013-07-25 18:21:00,39.1,16.0,29.89,NNW,346,0.0,0.0,41,0.00,,,0.00,TxWx,2013-07-25 23:21:00,
2013-07-25 18:26:00,39.0,15.0,29.89,NNW,338,0.0,0.0,39,0.00,,,0.00,TxWx,2013-07-25 23:26:00,
2013-07-25 18:32:00,39.3,15.0,29.88,NE,46,0.0,0.0,38,0.00,,,0.00,TxWx,2013-07-25 23:32:00,
2013-07-25 18:41:00,39.1,15.0,29.88,NNW,333,0.0,0.0,38,0.00,,,0.00,TxWx,2013-07-25 23:41:00,
2013-07-25 18:46:00,39.3,15.0,29.88,NE,42,0.0,0.0,39,0.00,,,0.00,TxWx,2013-07-25 23:46:00,
2013-07-25 18:51:00,39.2,15.0,29.87,NE,43,0.0,0.0,39,0.00,,,0.00,TxWx,2013-07-25 23:51:00,
2013-07-25 18:56:00,39.3,15.0,29.87,NE,41,0.0,0.0,39,0.00,,,0.00,TxWx,2013-07-25 23:56:00,
2013-07-25 19:01:00,39.0,15.0,29.87,NNE,31,0.0,0.0,40,0.00,,,0.00,TxWx,2013-07-26 00:01:00,
2013-07-25 19:11:00,38.8,16.0,29.87,NE,37,0.0,0.0,41,0.00,,,0.00,TxWx,2013-07-26 00:11:00,
2013-07-25 19:16:00,38.8,16.0,29.87,NE,39,0.0,0.0,41,0.00,,,0.00,TxWx,2013-07-26 00:16:00,
2013-07-25 19:21:00,38.9,17.0,29.87,NE,37,0.0,0.0,42,0.00,,,0.00,TxWx,2013-07-26 00:21:00,
2013-07-25 19:26:00,38.7,17.0,29.87,NE,40,0.0,0.0,42,0.00,,,0.00,TxWx,2013-07-26 00:26:00,
2013-07-25 19:32:00,38.6,17.0,29.88,NE,41,0.0,0.0,43,0.00,,,0.00,TxWx,2013-07-26 00:32:00,
2013-07-25 19:37:00,38.3,17.0,29.87,NNE,15,0.0,0.0,44,0.00,,,0.00,TxWx,2013-07-26 00:37:00,
2013-07-25 19:42:00,38.1,17.0,29.87,NNE,22,0.0,0.0,44,0.00,,,0.00,TxWx,2013-07-26 00:42:00,
2013-07-25 19:47:00,38.0,17.0,29.87,NNE,20,0.0,0.0,45,0.00,,,0.00,TxWx,2013-07-26 00:47:00,
2013-07-25 19:52:00,37.9,18.0,29.87,NNE,19,0.0,0.0,46,0.00,,,0.00,TxWx,2013-07-26 00:52:00,
2013-07-25 20:01:00,37.7,18.0,29.86,NNE,25,0.0,0.0,46,0.00,,,0.00,TxWx,2013-07-26 01:01:00,
2013-07-25 20:06:00,37.6,18.0,29.87,NNE,15,0.0,0.0,45,0.00,,,0.00,TxWx,2013-07-26 01:06:00,
2013-07-25 20:11:00,37.5,17.0,29.86,NNE,24,0.0,0.0,45,0.00,,,0.00,TxWx,2013-07-26 01:11:00,
2013-07-25 20:16:00,37.5,17.0,29.87,NNE,26,0.0,0.0,46,0.00,,,0.00,TxWx,2013-07-26 01:16:00,
2013-07-25 20:21:00,37.5,18.0,29.87,NNE,24,0.0,0.0,46,0.00,,,0.00,TxWx,2013-07-26 01:21:00,
2013-07-25 20:26:00,37.2,17.0,29.87,NNE,25,0.0,0.0,46,0.00,,,0.00,TxWx,2013-07-26 01:26:00,
2013-07-25 20:36:00,37.0,18.0,29.87,NNE,27,0.0,0.0,48,0.00,,,0.00,TxWx,2013-07-26 01:36:00,
2013-07-25 20:41:00,36.9,18.0,29.87,NNE,28,0.0,0.0,48,0.00,,,0.00,TxWx,2013-07-26 01:41:00,
2013-07-25 20:46:00,36.7,19.0,29.87,NNE,27,0.0,0.0,49,0.00,,,0.00,TxWx,2013-07-26 01:46:00,
2013-07-25 20:51:00,36.7,19.0,29.87,NNE,31,0.0,0.0,50,0.00,,,0.00,TxWx,2013-07-26 01:51:00,
2013-07-25 20:56:00,36.7,19.0,29.87,NE,34,0.0,0.0,49,0.00,,,0.00,TxWx,2013-07-26 01:56:00,
2013-07-25 21:06:00,36.5,19.0,29.87,NNE,31,0.0,0.0,50,0.00,,,0.00,TxWx,2013-07-26 02:06:00,
2013-07-25 21:11:00,36.5,20.0,29.88,NNE,30,0.0,0.0,52,0.00,,,0.00,TxWx,2013-07-26 02:11:00,
2013-07-25 21:16:00,36.7,20.0,29.88,NE,35,0.0,0.0,53,0.00,,,0.00,TxWx,2013-07-26 02:16:00,
2013-07-25 21:21:00,36.5,20.0,29.88,NE,36,0.0,0.0,54,0.00,,,0.00,TxWx,2013-07-26 02:21:00,
2013-07-25 21:26:00,36.5,21.0,29.88,NE,44,0.0,0.0,55,0.00,,,0.00,TxWx,2013-07-26 02:26:00,
2013-07-25 21:32:00,36.4,20.0,29.89,NE,42,0.0,0.0,55,0.00,,,0.00,TxWx,2013-07-26 02:32:00,
2013-07-25 21:41:00,36.5,20.0,29.89,NE,41,0.0,0.0,55,0.00,,,0.00,TxWx,2013-07-26 02:41:00,
2013-07-25 21:46:00,36.5,21.0,29.89,NE,45,0.0,0.0,56,0.00,,,0.00,TxWx,2013-07-26 02:46:00,
2013-07-25 21:56:00,36.4,21.0,29.90,NE,44,0.0,0.0,56,0.00,,,0.00,TxWx,2013-07-26 02:56:00,
2013-07-25 22:01:00,36.5,22.0,29.90,NE,40,0.0,0.0,56,0.00,,,0.00,TxWx,2013-07-26 03:01:00,
2013-07-25 22:11:00,36.2,21.0,29.90,NE,34,0.0,0.0,58,0.00,,,0.00,TxWx,2013-07-26 03:11:00,
2013-07-25 22:16:00,36.0,22.0,29.90,NE,35,0.0,0.0,58,0.00,,,0.00,TxWx,2013-07-26 03:16:00,
2013-07-25 22:21:00,36.0,22.0,29.90,NE,35,0.0,0.0,59,0.00,,,0.00,TxWx,2013-07-26 03:21:00,
2013-07-25 22:27:00,36.1,22.0,29.90,NE,34,0.0,0.0,60,0.00,,,0.00,TxWx,2013-07-26 03:27:00,
2013-07-25 22:36:00,35.8,23.0,29.89,NNE,32,0.0,0.0,61,0.00,,,0.00,TxWx,2013-07-26 03:36:00,
2013-07-25 22:41:00,35.7,23.0,29.89,NNE,31,0.0,0.0,61,0.00,,,0.00,TxWx,2013-07-26 03:41:00,
2013-07-25 22:46:00,35.5,22.0,29.89,NNE,33,0.0,0.0,62,0.00,,,0.00,TxWx,2013-07-26 03:46:00,
2013-07-25 22:52:00,35.5,24.0,29.90,NE,36,0.0,0.0,64,0.00,,,0.00,TxWx,2013-07-26 03:52:00,
2013-07-25 22:57:00,35.4,23.0,29.89,NE,34,0.0,0.0,64,0.00,,,0.00,TxWx,2013-07-26 03:57:00,
2013-07-25 23:01:00,35.5,24.0,29.89,NNE,31,0.0,0.0,64,0.00,,,0.00,TxWx,2013-07-26 04:01:00,
2013-07-25 23:02:00,35.3,23.0,29.89,NNE,30,0.0,0.0,64,0.00,,,0.00,TxWx,2013-07-26 04:02:00,
2013-07-25 23:03:00,35.4,23.0,29.89,NNE,30,0.0,0.0,64,0.00,,,0.00,TxWx,2013-07-26 04:03:00,
2013-07-25 23:08:00,35.4,23.0,29.89,NE,34,0.0,0.0,65,0.00,,,0.00,TxWx,2013-07-26 04:08:00,
2013-07-25 23:13:00,35.1,23.0,29.88,NNE,33,0.0,0.0,65,0.00,,,0.00,TxWx,2013-07-26 04:13:00,
2013-07-25 23:21:00,34.7,24.0,29.88,NNE,32,0.0,0.0,66,0.00,,,0.00,TxWx,2013-07-26 04:21:00,
2013-07-25 23:26:00,34.5,23.0,29.88,NNE,33,0.0,0.0,67,0.00,,,0.00,TxWx,2013-07-26 04:26:00,
2013-07-25 23:31:00,34.1,23.0,29.87,NE,34,0.0,0.0,68,0.00,,,0.00,TxWx,2013-07-26 04:31:00,
2013-07-25 23:36:00,34.0,23.0,29.87,NE,36,0.0,0.0,68,0.00,,,0.00,TxWx,2013-07-26 04:36:00,
2013-07-25 23:41:00,33.9,24.0,29.87,NE,37,0.0,0.0,68,0.00,,,0.00,TxWx,2013-07-26 04:41:00,
2013-07-25 23:51:00,33.7,24.0,29.87,NE,37,0.0,0.0,69,0.00,,,0.00,TxWx,2013-07-26 04:51:00,
2013-07-25 23:56:00,33.8,24.0,29.87,NE,39,0.0,0.0,69,0.00,,,0.00,TxWx,2013-07-26 04:56:00,